This demonstration page uses our WeatherBlox Daily Observations layout. Learn more.

Left ArrowRight Arrow

34.74481, -87.66753

Hourly Observations for May 24, 2019

Temp ( °F °C ) Dew Point ( °F °C ) Humidity (%) Winds ( mph kmh ) Pressure ( in mb ) Visibility ( mi km ) Precip ( " mm )
12:53 am 00:53 Clear 73 22.8 67 19.4 81 81 Calm 30.11 1020 10 16 0.00 0.00
1:53 am 01:53 Clear 71 21.7 67 19.4 87 87 Calm 30.10 1019 10 16 0.00 0.00
2:53 am 02:53 Clear 71 21.7 66 18.9 84 84 Calm 30.10 1019 10 16 0.00 0.00
3:53 am 03:53 Clear 70 21.1 66 18.9 87 87 Calm 30.10 1019 10 16 0.00 0.00
4:53 am 04:53 Clear 70 21.1 66 18.9 87 87 Calm 30.11 1020 10 16 0.00 0.00
5:53 am 05:53 Sunny 69 20.6 66 18.9 90 90 Calm 30.12 1020 10 16 0.00 0.00
6:53 am 06:53 Mostly Sunny 73 22.8 68 20 84 84 Calm 30.15 1021 10 16 0.00 0.00
7:53 am 07:53 Sunny 76 24.4 68 20 77 77 Calm 30.17 1022 10 16 0.00 0.00
8:53 am 08:53 Mostly Sunny 80 26.7 69 20.6 69 69 Calm 30.19 1022 10 16 0.00 0.00
9:53 am 09:53 Sunny 86 30 69 20.6 57 57 SSW 5 7 30.17 1022 10 16 0.00 0.00
10:19 am 10:19 Mostly Sunny 88 31.1 68 20 52 52 WSW 7 11 30.16 1021 10 16 0.00 0.00
10:53 am 10:53 Mostly Cloudy 87 30.6 69 20.6 55 55 S 7 11 30.17 1022 10 16 0.00 0.00
11:53 am 11:53 Partly Cloudy 91 32.8 68 20 47 47 SW 9 15 30.16 1021 10 16 0.00 0.00
12:53 pm 12:53 Partly Cloudy 91 32.8 67 19.4 45 45 VRB 7 11 30.14 1021 10 16 0.00 0.00
1:53 pm 13:53 Mostly Sunny 92 33.3 67 19.4 44 44 SW 6 9 30.13 1020 10 16 0.00 0.00
2:53 pm 14:53 Mostly Sunny 94 34.4 68 20 43 43 SW 9 15 30.12 1020 10 16 0.00 0.00
4:53 pm 16:53 Partly Cloudy 93 33.9 67 19.4 42 42 WSW 10 17 30.09 1019 10 16 0.00 0.00
5:53 pm 17:53 Mostly Sunny 92 33.3 67 19.4 44 44 W 10 17 30.08 1019 10 16 0.00 0.00
7:53 pm 19:53 Clear 85 29.4 67 19.4 55 55 Calm 30.06 1018 10 16 0.00 0.00
8:53 pm 20:53 Clear 78 25.6 70 21.1 76 76 SSE 3 6 30.06 1018 10 16 0.00 0.00
9:53 pm 21:53 Clear 76 24.4 70 21.1 82 82 SE 3 6 30.06 1018 10 16 0.00 0.00
10:53 pm 22:53 Clear 75 23.9 71 21.7 88 88 Calm 30.06 1018 10 16 0.00 0.00
11:53 pm 23:53 Clear 73 22.8 68 20 84 84 Calm 30.06 1018 10 16 0.00 0.00

Powered by AerisWeather